User: anonymous   Login
Location: Unspecified
(54.1780°N, 0.0000°E)
Time: 19:24:36
(UTC+00:00)
Language:

Courier 1B Rocket - Orbit

View from above orbital plane
View from above orbital plane
View from above satellite
View from above satellite

Ground track
Ground track

The orbit data is extracted from the following two-line orbital elements,

1    59U 60013B   19174.69849935 +.00000104 +00000-0 +19388-4 0  9997
2    59 028.2481 266.1752 0189118 146.6381 214.6240 13.52968488897846
Epoch (UTC): 23 June 2019 16:45:50
Eccentricity: 0.0189118
inclination: 28.2481°
perigee height: 920 km
apogee height: 1202 km
right ascension of ascending node: 266.1752°
argument of perigee: 146.6381°
revolutions per day: 13.52968488
mean anomaly at epoch: 214.6240°
orbit number at epoch: 89784

The dashed part of the orbit path shows where the satellite is in the earth's shadow,  

DLR